When you browse on this site, cookies collect data to enhance your experience and personalize the content and advertising you see.
Visit our Privacy Policy to learn more. By continuing to use the site, you agree to this use of cookies and data.
  • In Denmark
  • List of Countries
  • For 7 days
  • Water Temperature
  • Weather Map
  • Weather Widgets
  • user-avatar
    Login

    Hourly Weather Sidi Bu-l-Abbas

    Today, 10 April, Friday

    Time Temperature Precipitation Wind Pressure Humidity
    00:00 +14°C° 0.2 mm 2 mps 722 mmHg 92%
    01:00 +14°C° 0 mm 2 mps 722 mmHg 93%
    02:00 +14°C° 0 mm 1 mps 721 mmHg 93%
    03:00 +14°C° 0 mm 1 mps 721 mmHg 93%
    04:00 +14°C° 0 mm 1 mps 721 mmHg 93%
    05:00 +14°C° 0 mm 1 mps 721 mmHg 92%
    06:00 +14°C° 0 mm 1 mps 721 mmHg 92%
    07:00 +14°C° 0 mm 2 mps 722 mmHg 88%
    08:00 +15°C° 0 mm 2 mps 722 mmHg 85%
    09:00 +15°C° 0 mm 2 mps 722 mmHg 81%
    10:00 +16°C° 0 mm 3 mps 723 mmHg 80%
    11:00 +16°C° 0 mm 3 mps 723 mmHg 78%
    12:00 +15°C° 0 mm 4 mps 723 mmHg 76%
    13:00 +17°C° 0 mm 4 mps 722 mmHg 74%
    14:00 +17°C° 0 mm 4 mps 722 mmHg 72%
    15:00 +17°C° 0 mm 4 mps 722 mmHg 69%
    16:00 +17°C° 0 mm 3 mps 722 mmHg 70%
    17:00 +16°C° 0 mm 3 mps 722 mmHg 71%
    18:00 +16°C° 0 mm 3 mps 722 mmHg 72%
    19:00 +15°C° 0 mm 2 mps 723 mmHg 78%
    20:00 +14°C° 0 mm 2 mps 723 mmHg 84%
    21:00 +12°C° 0 mm 1 mps 723 mmHg 90%
    22:00 +12°C° 0 mm 1 mps 723 mmHg 91%
    23:00 +12°C° 0 mm 1 mps 723 mmHg 93%

    Tomorrow, 11 April, Saturday

    Time Temperature Precipitation Wind Pressure Humidity
    00:00 +10°C° 0 mm 0 mps 723 mmHg 94%
    01:00 +10°C° 0 mm 0 mps 723 mmHg 94%
    02:00 +10°C° 0 mm 0 mps 722 mmHg 94%
    03:00 +9°C° 0 mm 0 mps 722 mmHg 94%
    04:00 +10°C° 0 mm 0 mps 722 mmHg 94%
    05:00 +10°C° 0 mm 0 mps 722 mmHg 94%
    06:00 +11°C° 0 mm 1 mps 722 mmHg 94%
    07:00 +13°C° 0 mm 1 mps 722 mmHg 86%
    08:00 +14°C° 0 mm 2 mps 723 mmHg 78%
    09:00 +16°C° 0 mm 2 mps 723 mmHg 70%
    10:00 +18°C° 0 mm 2 mps 723 mmHg 65%
    11:00 +19°C° 0 mm 2 mps 723 mmHg 59%
    12:00 +21°C° 0 mm 2 mps 722 mmHg 53%
    13:00 +21°C° 0 mm 3 mps 722 mmHg 53%
    14:00 +21°C° 0 mm 4 mps 722 mmHg 53%
    15:00 +22°C° 0 mm 5 mps 721 mmHg 53%
    16:00 +20°C° 0 mm 5 mps 721 mmHg 60%
    17:00 +19°C° 0 mm 4 mps 720 mmHg 68%
    18:00 +18°C° 0 mm 4 mps 720 mmHg 76%
    19:00 +17°C° 0 mm 3 mps 720 mmHg 79%
    20:00 +16°C° 0 mm 2 mps 721 mmHg 83%
    21:00 +15°C° 0 mm 1 mps 721 mmHg 86%
    22:00 +16°C° 0.1 mm 2 mps 721 mmHg 85%
    23:00 +16°C° 0.1 mm 2 mps 721 mmHg 84%

    Day after tomorrow, 12 April, Sunday

    Time Temperature Precipitation Wind Pressure Humidity
    00:00 +16°C° 0.1 mm 2 mps 721 mmHg 82%
    01:00 +16°C° 0.1 mm 2 mps 720 mmHg 84%
    02:00 +15°C° 0.1 mm 1 mps 720 mmHg 86%
    03:00 +15°C° 0.1 mm 1 mps 720 mmHg 89%
    04:00 +15°C° 0.1 mm 1 mps 720 mmHg 89%
    05:00 +15°C° 0.1 mm 1 mps 719 mmHg 90%
    06:00 +15°C° 0.1 mm 1 mps 719 mmHg 90%
    07:00 +16°C° 0.2 mm 1 mps 720 mmHg 86%
    08:00 +18°C° 0.2 mm 1 mps 720 mmHg 83%
    09:00 +18°C° 0.2 mm 1 mps 720 mmHg 79%
    10:00 +20°C° 0 mm 2 mps 720 mmHg 69%
    11:00 +22°C° 0 mm 3 mps 720 mmHg 59%
    12:00 +25°C° 0 mm 4 mps 719 mmHg 50%
    13:00 +26°C° 0 mm 5 mps 719 mmHg 47%
    14:00 +27°C° 0 mm 5 mps 718 mmHg 45%
    15:00 +27°C° 0 mm 5 mps 718 mmHg 42%
    16:00 +25°C° 0 mm 5 mps 717 mmHg 53%
    17:00 +22°C° 0 mm 4 mps 716 mmHg 63%
    18:00 +19°C° 0 mm 4 mps 716 mmHg 74%
    19:00 +18°C° 0.2 mm 3 mps 716 mmHg 80%
    20:00 +17°C° 0.2 mm 2 mps 716 mmHg 85%
    21:00 +16°C° 0.2 mm 1 mps 716 mmHg 91%
    22:00 +16°C° 0 mm 1 mps 715 mmHg 91%
    23:00 +16°C° 0 mm 1 mps 715 mmHg 92%

    13 April, Monday

    Time Temperature Precipitation Wind Pressure Humidity
    00:00 +15°C° 0 mm 1 mps 714 mmHg 92%
    01:00 +15°C° 0 mm 1 mps 714 mmHg 92%
    02:00 +15°C° 0 mm 1 mps 714 mmHg 92%
    03:00 +15°C° 0 mm 1 mps 713 mmHg 92%
    04:00 +15°C° 0.1 mm 2 mps 713 mmHg 91%
    05:00 +15°C° 0.1 mm 2 mps 713 mmHg 90%
    06:00 +16°C° 0.1 mm 3 mps 712 mmHg 89%
    07:00 +17°C° 0 mm 3 mps 712 mmHg 77%
    08:00 +19°C° 0 mm 4 mps 712 mmHg 65%
    09:00 +21°C° 0 mm 4 mps 712 mmHg 54%
    10:00 +22°C° 0 mm 5 mps 712 mmHg 52%
    11:00 +23°C° 0 mm 6 mps 711 mmHg 51%
    12:00 +24°C° 0 mm 7 mps 711 mmHg 49%
    13:00 +22°C° 0 mm 8 mps 711 mmHg 58%
    14:00 +20°C° 0 mm 8 mps 711 mmHg 67%
    15:00 +17°C° 0 mm 9 mps 710 mmHg 76%
    16:00 +16°C° 0.1 mm 7 mps 711 mmHg 80%
    17:00 +15°C° 0.1 mm 5 mps 711 mmHg 84%
    18:00 +14°C° 0.1 mm 4 mps 712 mmHg 88%
    19:00 +14°C° 0.2 mm 3 mps 712 mmHg 89%
    20:00 +15°C° 0.2 mm 2 mps 713 mmHg 89%
    21:00 +14°C° 0.2 mm 1 mps 713 mmHg 90%
    22:00 +14°C° 0.4 mm 1 mps 713 mmHg 89%
    23:00 +15°C° 0.4 mm 1 mps 713 mmHg 89%

    14 April, Tuesday

    Time Temperature Precipitation Wind Pressure Humidity
    00:00 +15°C° 0.4 mm 1 mps 713 mmHg 88%
    01:00 +14°C° 0.3 mm 1 mps 712 mmHg 87%
    02:00 +14°C° 0.3 mm 2 mps 712 mmHg 86%
    03:00 +14°C° 0.3 mm 2 mps 712 mmHg 86%
    04:00 +14°C° 0 mm 2 mps 711 mmHg 87%
    05:00 +13°C° 0 mm 2 mps 711 mmHg 87%
    06:00 +13°C° 0 mm 2 mps 711 mmHg 88%
    07:00 +13°C° 0 mm 4 mps 711 mmHg 77%
    08:00 +15°C° 0 mm 6 mps 712 mmHg 66%
    09:00 +17°C° 0 mm 8 mps 712 mmHg 55%
    10:00 +18°C° 0 mm 8 mps 712 mmHg 51%
    11:00 +20°C° 0 mm 8 mps 712 mmHg 48%
    12:00 +21°C° 0 mm 8 mps 712 mmHg 44%
    13:00 +21°C° 0 mm 7 mps 712 mmHg 45%
    14:00 +21°C° 0 mm 6 mps 711 mmHg 46%
    15:00 +21°C° 0 mm 5 mps 711 mmHg 46%
    16:00 +20°C° 0 mm 4 mps 711 mmHg 51%
    17:00 +19°C° 0 mm 3 mps 710 mmHg 56%
    18:00 +18°C° 0 mm 2 mps 710 mmHg 61%
    19:00 +16°C° 0 mm 2 mps 710 mmHg 68%
    20:00 +14°C° 0 mm 1 mps 711 mmHg 76%
    21:00 +13°C° 0 mm 1 mps 711 mmHg 83%
    22:00 +13°C° 0 mm 1 mps 711 mmHg 80%
    23:00 +13°C° 0 mm 2 mps 712 mmHg 77%

    15 April, Wednesday

    Time Temperature Precipitation Wind Pressure Humidity
    00:00 +14°C° 0 mm 2 mps 712 mmHg 74%
    01:00 +13°C° 0 mm 4 mps 712 mmHg 70%
    02:00 +13°C° 0 mm 5 mps 712 mmHg 66%
    03:00 +13°C° 0 mm 6 mps 712 mmHg 63%
    04:00 +11°C° 0 mm 6 mps 713 mmHg 65%
    05:00 +12°C° 0 mm 5 mps 713 mmHg 67%
    06:00 +10°C° 0 mm 5 mps 713 mmHg 70%
    07:00 +12°C° 0 mm 7 mps 714 mmHg 62%
    08:00 +13°C° 0 mm 9 mps 714 mmHg 54%
    09:00 +16°C° 0 mm 11 mps 715 mmHg 46%
    10:00 +17°C° 0 mm 11 mps 715 mmHg 44%
    11:00 +18°C° 0 mm 10 mps 715 mmHg 42%
    12:00 +18°C° 0 mm 9 mps 716 mmHg 40%
    13:00 +20°C° 0 mm 8 mps 715 mmHg 39%
    14:00 +20°C° 0 mm 7 mps 715 mmHg 39%
    15:00 +20°C° 0 mm 6 mps 715 mmHg 39%
    16:00 +19°C° 0 mm 5 mps 715 mmHg 44%
    17:00 +18°C° 0 mm 4 mps 715 mmHg 49%
    18:00 +17°C° 0 mm 2 mps 715 mmHg 55%
    19:00 +16°C° 0 mm 2 mps 715 mmHg 59%
    20:00 +15°C° 0 mm 2 mps 716 mmHg 62%
    21:00 +13°C° 0 mm 1 mps 716 mmHg 66%
    22:00 +13°C° 0 mm 1 mps 716 mmHg 67%
    23:00 +13°C° 0 mm 1 mps 716 mmHg 67%
    Show more